Probability
0 0 0 0 0 0 0 0 0 0 0 0 0 0 0 0 0 0 2 10 20 23 21 24 29 26 16 11 8 5 2 0 0 0 0 0 0 1 2 2 1 1 2 2 2 1 1 0 0
1 0 0 0 0 0 0 0 0 0 0 0 0 0 0 0 0 0 4 14 23 24 22 26 32 29 20 13 8 4 2 1 0 0 0 0 0 1 2 2 1 0 1 2 2 2 2 1 0
2 1 0 0 0 0 0 0 0 0 0 0 0 0 0 1 1 1 8 21 28 26 24 29 33 31 23 15 9 4 2 1 0 0 0 0 0 0 1 1 0 0 0 1 1 2 2 2 1
2 1 0 0 0 0 0 0 0 0 0 0 0 0 2 4 4 3 10 22 30 29 27 29 31 29 24 18 11 6 3 2 1 1 1 0 0 0 1 1 0 0 0 0 0 1 1 1 1
1 0 0 0 0 0 0 0 0 0 0 0 0 1 5 7 6 6 11 21 30 32 30 28 30 28 24 19 14 10 7 5 3 2 2 1 0 1 2 2 1 0 0 0 0 0 0 0 0
1 0 0 0 0 0 0 0 0 0 0 0 0 2 7 10 9 10 16 25 33 35 31 29 29 27 24 19 16 14 12 10 6 4 4 3 1 1 2 2 1 0 1 0 0 0 0 0 0
1 0 0 0 0 0 0 0 0 0 0 0 1 3 8 11 14 17 24 34 40 37 31 28 26 23 21 18 16 16 15 11 8 6 6 4 3 2 2 1 1 0 0 0 0 0 0 0 0
0 0 0 0 0 0 0 0 0 0 0 1 3 7 12 16 20 25 32 40 43 39 31 26 21 17 15 14 14 14 13 10 7 7 5 4 3 3 1 1 1 0 0 0 0 0 0 0 0
0 0 0 0 0 0 0 0 0 0 1 2 6 13 19 21 25 30 37 41 44 40 33 25 19 16 13 11 11 12 11 8 6 5 4 3 3 2 1 0 0 0 0 0 0 0 0 0 0
0 0 0 0 0 0 0 0 0 0 1 3 9 17 22 23 26 31 37 40 42 42 37 29 22 20 17 13 12 12 10 8 6 4 3 3 3 3 1 0 0 0 0 0 0 0 0 0 0
0 0 0 0 0 0 0 0 0 0 1 2 7 15 20 21 22 26 32 37 40 41 39 32 28 26 22 18 15 13 11 9 7 5 4 4 4 3 2 1 0 0 0 0 0 0 0 0 0
0 0 0 0 0 0 0 0 0 0 0 1 5 13 18 18 18 22 29 34 36 36 35 33 31 29 25 21 17 15 12 11 9 7 5 5 5 4 2 1 0 0 0 0 0 0 0 0 0
0 0 0 0 0 0 0 0 0 0 0 0 4 11 15 15 15 20 27 31 32 32 32 33 33 30 26 22 18 15 14 12 11 8 6 6 5 4 1 0 0 0 0 0 0 0 0 0 0
0 0 0 0 0 0 0 0 0 0 0 0 2 5 9 11 13 17 23 27 28 28 29 31 32 31 28 25 20 16 14 12 11 9 7 6 4 2 1 0 0 0 0 0 0 0 0 0 0
0 0 0 0 0 0 0 0 0 0 0 0 0 1 3 7 10 13 17 20 22 24 25 27 29 30 30 28 23 19 15 12 11 10 8 6 5 4 3 1 0 0 0 0 0 0 0 0 0
0 0 0 0 0 0 0 0 0 0 0 0 0 0 1 4 7 11 13 15 18 21 22 23 25 27 28 27 24 20 17 13 11 10 10 8 7 7 5 3 1 0 0 0 0 0 0 0 0
0 0 0 0 0 0 0 0 0 0 0 0 0 0 1 3 5 7 10 13 16 19 20 20 21 22 22 22 21 21 18 15 12 12 12 11 9 7 6 5 2 1 1 1 0 0 0 0 0
0 0 0 0 0 0 0 0 0 0 0 0 0 1 2 2 3 4 6 10 13 16 17 17 18 18 18 18 19 19 18 15 13 12 12 11 10 8 7 6 4 2 2 2 1 0 0 0 0
0 0 0 0 0 0 0 0 0 0 0 0 0 1 2 3 3 3 4 6 9 12 14 14 15 14 14 15 16 15 14 12 10 9 8 8 8 7 8 7 5 4 3 3 2 0 0 0 0
0 0 0 0 0 0 0 0 0 0 0 0 0 0 1 2 3 3 3 4 6 9 10 11 12 12 11 11 11 10 8 7 6 5 4 3 3 4 5 6 6 5 4 3 1 0 1 1 1
0 0 0 0 0 0 0 0 0 0 0 0 0 0 0 1 2 2 3 3 4 6 8 9 10 11 9 8 7 7 5 4 4 3 1 0 1 1 2 3 5 4 3 2 1 1 2 2 2
0 0 0 0 0 0 0 0 0 0 0 0 0 0 0 0 1 1 1 2 3 5 7 8 9 9 8 7 6 6 5 4 3 2 1 0 0 1 1 1 2 2 1 1 0 1 2 2 2
0 0 0 0 0 0 0 0 0 0 0 0 0 0 0 0 0 0 0 1 3 5 7 8 8 7 7 6 6 5 4 3 3 2 0 0 0 0 0 0 1 1 0 0 0 1 1 1 1
0 0 0 0 0 0 0 0 0 0 0 0 0 0 0 0 0 0 0 0 2 5 7 7 7 6 5 5 5 5 4 3 3 2 1 0 0 0 0 0 0 0 1 1 1 2 2 1 0
0 0 0 0 0 0 0 0 0 0 0 0 0 0 0 0 0 0 0 0 1 3 4 5 6 6 5 4 5 5 4 3 3 2 1 1 0 0 0 0 0 1 2 3 3 3 2 1 0
0 0 0 0 0 0 0 0 0 0 0 0 0 0 0 0 0 0 0 0 0 1 2 3 5 6 5 4 4 4 3 3 2 2 2 1 0 0 0 0 1 3 5 5 4 4 3 1 0
0 0 0 0 0 0 0 0 0 0 0 0 0 0 0 0 0 0 0 0 0 0 0 1 4 5 5 4 3 3 2 2 2 1 1 1 1 1 0 1 2 4 5 6 6 5 4 1 0
0 0 0 0 0 0 0 0 0 0 0 0 0 0 0 0 0 0 0 0 0 0 0 1 3 4 5 4 3 2 1 1 1 1 0 0 1 1 1 1 2 3 4 5 6 6 5 3 1
0 0 0 0 0 0 0 0 0 0 0 0 0 0 0 0 0 0 0 0 0 0 0 1 2 3 4 3 1 1 0 0 0 0 0 0 1 1 2 2 2 3 3 4 4 5 5 3 1
0 0 0 0 0 0 0 0 0 0 0 0 0 0 0 0 0 0 0 0 0 0 0 0 1 3 3 2 1 0 0 0 0 0 0 0 0 0 1 2 3 3 3 3 4 4 4 3 1
Wind_Speed
10 10 7 3 3 5 8 8 5 2 1 3 5 4 4 5 5 8 4 9 14 15 15 14 14 14 14 13 13 13 12 12 12 12 12 12 12 12 12 12 12 12 12 12 12 13 12 12 12
9 9 5 3 5 6 8 9 6 2 5 4 3 3 3 6 8 8 5 11 15 15 13 13 14 14 14 14 13 13 12 12 11 11 11 11 11 11 11 12 12 12 12 12 12 12 12 12 11
11 9 4 4 6 8 6 5 5 4 7 3 2 2 2 5 7 6 7 12 13 14 12 14 15 15 14 14 13 13 12 12 11 11 11 11 11 11 11 11 11 11 11 11 11 12 11 11 10
5 3 4 6 11 9 7 0 5 5 5 3 3 4 4 6 4 8 10 12 13 13 13 13 15 15 14 14 13 12 12 11 11 11 11 11 11 11 11 11 11 11 11 11 11 11 11 10 9
4 4 6 8 13 10 6 1 3 4 5 5 3 4 6 4 8 10 8 11 12 13 13 13 14 15 14 13 13 12 12 11 11 11 11 11 10 10 10 10 10 10 10 10 10 10 10 9 9
4 4 7 10 12 10 6 2 3 3 4 5 4 3 5 5 7 7 7 9 12 13 13 12 13 13 13 13 12 12 11 11 11 11 10 11 10 10 10 10 9 9 9 9 9 9 9 8 8
5 5 9 10 9 8 6 4 4 3 4 4 3 4 6 6 7 7 7 9 11 13 12 11 10 11 12 12 12 11 11 11 10 10 10 9 10 10 10 9 9 8 8 8 8 8 8 7 6
4 4 8 11 10 7 4 4 3 2 2 2 2 3 7 8 8 7 7 8 10 10 10 10 9 9 8 8 11 11 10 10 9 9 9 9 9 8 9 8 8 8 8 8 7 7 7 6 5
4 5 8 9 8 4 3 3 2 2 1 2 4 5 10 13 9 7 7 7 8 9 8 9 9 8 8 7 9 9 9 9 9 7 8 7 4 5 5 7 7 7 7 6 6 6 5 5 3
5 7 9 6 4 3 1 2 3 2 2 2 5 9 12 10 9 9 9 9 9 9 8 7 8 8 7 7 6 5 5 6 5 5 5 4 3 3 5 7 7 6 6 5 4 4 3 2 1
7 7 7 7 5 5 2 0 2 4 4 4 7 11 10 10 8 8 8 8 9 8 7 6 7 7 6 4 4 3 3 3 4 5 4 4 3 3 3 3 3 3 4 2 2 2 1 1 1
8 9 8 5 3 3 3 2 2 2 1 1 5 11 11 10 9 8 7 7 8 8 7 6 6 6 5 5 4 3 3 3 2 3 4 3 2 3 2 2 2 2 2 2 2 1 1 1 1
12 9 7 4 3 3 3 4 3 3 0 3 5 8 9 8 7 6 6 6 6 7 6 6 6 6 5 4 3 3 3 3 3 3 3 4 3 3 3 2 2 2 1 2 1 1 1 1 0
8 8 6 5 4 3 4 5 4 4 2 3 4 6 6 7 7 6 6 6 6 6 6 6 7 7 6 4 4 3 3 3 2 3 2 3 3 3 3 2 2 1 1 1 1 1 1 1 1
7 7 7 7 6 4 3 7 7 5 4 4 5 5 6 6 6 6 6 6 6 6 6 5 6 6 6 5 4 3 3 3 2 2 3 3 3 3 3 2 2 1 1 1 1 1 1 1 1
7 7 7 7 8 5 5 8 6 5 5 5 5 5 5 5 6 5 5 5 6 7 6 5 6 6 5 5 4 3 3 3 2 2 2 3 3 3 3 2 1 1 1 1 1 1 1 1 1
7 8 9 7 8 6 7 6 4 5 6 5 5 5 5 5 5 5 5 5 6 7 7 6 5 6 5 5 4 3 3 3 2 2 2 2 2 3 3 2 1 2 2 1 1 1 1 1 1
7 8 9 9 8 7 8 7 4 3 4 5 5 5 5 5 4 4 5 5 5 6 6 6 6 5 5 4 3 3 3 3 2 2 2 2 2 3 3 2 2 2 2 1 1 1 1 1 1
5 8 9 7 5 7 8 8 6 4 4 5 5 4 5 5 4 4 5 4 4 5 5 5 5 5 5 4 4 3 3 2 2 2 3 2 2 2 2 2 2 2 2 2 2 1 1 0 1
7 7 7 2 2 4 5 8 7 6 6 6 5 4 4 4 4 4 5 4 4 5 5 5 5 5 5 4 3 3 3 3 2 2 2 2 2 2 2 3 2 2 2 2 2 2 1 0 1
8 7 5 3 1 3 3 6 7 6 5 4 3 3 4 4 4 4 5 4 4 4 4 4 4 4 5 5 4 4 3 3 2 2 1 1 2 2 2 2 2 2 2 2 2 2 2 1 0
6 5 3 2 2 3 4 3 5 6 6 6 6 4 3 4 3 3 4 4 4 3 3 4 4 4 5 5 5 6 5 4 3 3 2 2 1 2 2 2 2 2 2 2 1 1 1 2 1
3 2 2 4 4 3 5 4 5 7 7 7 6 5 4 4 4 4 3 4 4 3 3 3 4 4 4 5 5 5 4 3 3 3 3 2 1 1 2 2 2 2 1 1 1 1 1 1 1
2 1 1 3 2 5 8 6 5 5 8 7 5 4 4 4 4 4 3 4 4 3 3 3 4 4 4 4 5 5 5 5 5 4 3 2 1 1 1 1 2 2 1 1 1 1 1 1 1
2 3 2 3 4 6 5 5 4 1 3 5 5 5 4 4 4 4 4 3 3 3 3 2 3 3 3 3 4 5 5 5 5 5 4 3 2 1 1 1 1 1 2 1 1 1 1 1 1
5 4 3 3 4 2 3 5 1 2 4 5 5 5 4 4 4 4 3 3 3 3 3 3 3 3 3 3 3 3 4 3 3 4 3 3 2 2 2 2 2 2 2 2 2 1 0 0 0
3 4 3 1 2 2 4 2 1 3 5 4 5 5 4 4 4 3 3 3 2 3 3 3 3 3 3 3 2 3 3 3 3 3 3 2 2 2 3 2 2 2 2 2 2 1 0 0 1
2 1 1 2 3 3 4 4 3 3 2 3 3 4 4 4 3 3 3 3 2 3 3 2 3 3 3 3 2 2 3 3 3 3 3 3 3 2 3 3 2 2 2 2 1 1 0 0 1
2 2 2 3 3 2 2 1 2 3 3 3 3 3 4 3 2 2 2 2 3 3 3 3 3 3 3 3 2 3 3 3 3 3 3 3 3 3 3 3 2 2 2 1 1 0 0 0 1
1 2 2 2 3 2 1 1 3 4 4 4 3 4 4 3 3 3 3 3 3 3 3 3 3 3 3 3 3 3 3 3 3 4 3 3 3 3 3 2 3 2 2 1 1 1 1 0 1
Wind_Direction
279 264 246 241 233 230 236 240 241 200 83 40 29 20 41 35 46 108 159 127 121 127 132 134 129 128 125 123 120 117 115 112 110 108 106 103 101 99 98 96 96 92 90 88 87 85 83 83 82
272 258 245 234 234 228 229 224 235 173 95 69 50 29 44 70 81 106 129 121 125 126 131 133 129 127 125 123 123 120 117 115 113 111 108 106 105 103 99 97 95 94 91 89 88 86 84 84 82
263 252 235 226 231 231 238 197 183 112 100 109 115 45 43 76 101 115 123 125 123 123 128 128 128 127 126 125 124 123 121 119 117 114 111 107 105 104 100 98 96 95 93 92 90 86 85 85 83
246 227 243 241 241 242 257 260 104 123 124 141 142 110 73 39 72 110 124 129 124 123 123 129 129 128 127 126 125 124 123 122 121 118 114 110 106 104 100 98 98 96 95 94 92 90 86 84 83
240 231 225 235 243 245 253 111 104 155 157 168 183 129 97 70 91 113 133 132 128 124 124 131 129 130 129 128 127 126 123 122 120 119 117 114 111 107 102 99 98 98 97 96 94 93 89 84 81
227 234 227 227 235 236 233 176 156 193 177 164 170 150 106 117 113 127 134 128 125 123 127 131 127 130 131 130 129 128 126 124 122 120 118 117 115 111 107 104 101 100 99 98 97 96 92 88 82
239 239 243 242 234 228 216 174 179 209 192 163 161 136 125 131 126 135 131 125 120 123 129 134 136 131 130 131 131 130 128 126 124 121 119 117 115 114 111 107 105 103 103 101 99 98 96 93 86
257 264 244 246 244 231 195 174 171 204 201 124 124 139 141 141 138 138 126 119 119 126 132 139 141 140 135 132 133 132 130 129 126 124 122 119 115 114 112 112 108 105 106 105 103 101 99 95 89
259 248 238 235 246 241 164 163 142 44 34 49 60 56 118 130 136 134 128 123 128 134 139 142 143 141 140 140 139 138 136 135 132 131 133 131 129 127 122 121 115 113 111 110 109 110 107 103 95
214 233 237 257 292 301 182 153 137 158 191 153 103 96 115 132 142 149 150 149 149 150 150 146 144 141 141 142 139 148 149 149 148 148 147 148 137 131 125 123 124 122 120 119 117 117 121 133 148
208 234 249 272 326 347 348 208 177 185 207 190 150 139 139 146 155 161 163 157 154 152 148 148 141 138 137 135 141 141 145 151 154 153 154 145 134 129 125 129 135 138 144 146 139 145 183 185 163
231 239 253 268 319 326 305 290 244 234 230 86 134 143 147 158 165 169 168 159 152 150 150 147 139 138 139 135 136 140 144 150 150 156 155 142 134 134 136 139 149 155 162 159 163 183 198 199 164
236 238 245 262 285 286 284 277 269 246 275 68 111 141 157 168 171 170 162 154 149 150 152 150 143 141 140 135 141 141 140 148 145 143 148 138 138 142 141 141 145 154 146 153 164 183 188 174 130
235 241 245 247 242 249 248 261 260 250 179 146 154 164 167 170 172 167 163 159 158 155 154 150 147 145 140 140 145 140 141 138 137 138 144 138 137 137 137 134 134 136 137 148 165 173 145 114 71
252 241 237 230 223 218 226 247 232 231 196 183 175 172 170 173 170 171 169 159 155 150 148 151 148 145 144 146 144 133 140 135 128 144 148 137 130 130 127 128 136 151 139 137 125 94 86 77 63
234 228 223 212 203 201 202 239 221 206 189 191 189 182 172 177 177 173 163 157 152 147 149 154 149 149 146 141 135 133 134 125 128 131 139 137 129 122 116 119 132 124 105 95 90 83 65 51 26
209 217 215 208 197 197 212 241 219 190 189 199 195 183 174 173 174 167 160 157 152 150 150 151 146 147 141 136 136 131 123 115 118 111 110 125 124 122 122 125 128 113 101 95 88 67 76 54 5
202 213 218 215 189 202 220 238 239 202 204 211 206 187 175 171 170 153 141 135 137 140 142 145 143 138 130 126 123 117 113 113 108 108 107 121 123 124 127 125 132 121 116 110 105 97 70 66 354
241 231 227 226 193 202 218 232 239 224 214 222 216 192 174 169 154 135 130 130 127 132 137 145 144 143 135 136 136 131 129 122 110 114 119 126 126 123 124 124 132 125 131 145 138 113 101 64 44
257 253 240 231 185 207 223 242 243 233 217 211 210 190 169 155 146 140 133 132 136 142 145 146 147 147 145 144 141 136 132 126 118 106 105 107 125 135 137 135 136 138 137 137 135 125 115 111 94
242 244 239 214 249 242 239 255 227 225 211 196 203 192 160 161 157 146 139 133 132 136 149 151 150 149 143 135 123 115 100 95 99 120 126 112 122 128 125 132 134 145 149 159 158 144 138 157 212
237 240 245 218 184 224 198 239 232 203 205 196 191 192 161 154 150 147 142 141 141 137 140 148 145 144 144 139 141 144 147 151 160 151 139 131 119 130 127 124 131 145 146 150 157 142 154 156 185
252 266 228 238 229 246 219 225 247 198 198 200 184 174 158 147 144 142 136 133 123 116 124 133 134 138 141 148 152 150 145 144 134 130 131 127 111 118 128 129 130 135 133 140 139 135 148 150 161
250 73 285 258 225 232 212 206 243 208 190 181 175 155 138 123 122 124 117 110 110 112 114 118 126 131 144 151 152 149 147 144 141 140 143 140 127 120 130 129 127 126 123 138 142 146 150 149 158
182 140 155 195 205 228 200 205 229 193 147 147 144 124 111 107 103 111 106 105 108 120 125 124 124 127 134 147 152 150 152 157 156 150 152 147 141 138 157 123 122 120 120 116 100 102 127 154 180
206 192 185 194 202 221 185 209 218 83 90 98 105 104 93 83 86 92 97 101 107 122 131 135 135 133 136 140 140 142 145 148 145 142 144 148 148 149 155 131 112 108 103 98 95 83 97 316 252
194 223 257 292 280 216 203 191 145 78 81 87 91 98 97 84 75 79 89 92 107 132 142 145 140 135 134 129 121 121 124 120 122 124 120 126 125 131 135 132 119 111 108 111 113 106 169 290 261
227 226 203 193 216 229 204 198 189 161 142 113 98 98 96 88 77 72 81 85 89 115 130 132 130 132 126 119 120 112 112 111 112 114 115 113 108 111 126 129 125 118 116 122 129 138 152 147 290
185 201 210 211 230 222 208 198 35 137 129 117 103 107 111 109 99 82 74 76 82 90 105 115 118 118 116 113 107 100 98 101 105 107 105 107 104 104 110 117 119 109 94 97 107 109 116 137 316
218 217 202 200 242 249 245 263 8 85 82 90 88 94 91 88 80 79 80 79 77 82 90 101 112 117 116 112 106 102 95 94 96 98 95 93 95 97 103 100 105 101 89 81 85 65 22 321 287